Volver al catálogo

STARLINK-31536

ActivoComunicacionesVLEO
NORAD 59192·PAYLOAD·🇺🇸 United States

Lanzado Mar 10, 2024 desde Cape Canaveral Space Force Station

Loading…

Próximos Pases (próximas 24 horas)

TLE

ActualizadoSource: CelesTrak SupGP

Época: Sep 14, 2026, 20:59 UTC

1 59192C 24045Q   26257.87479167 -.00045049  00000+0 -16318-2 0  2573
2 59192  42.9991 104.1171 0001227 272.6284 127.8822 15.27598131    13

Sigue STARLINK-31536 en tiempo real con AllMySat

Download on the App Store